Retour au catalogue

TIANFU DONGPO 01

ActifCommunicationsPO
NORAD 53453·PAYLOAD·🇨🇳 China
Ce nom de satellite n'a pas encore été confirmé par des sources officielles.

Lancé Aug 10, 2022 depuis Taiyuan Satellite Launch Center

Loading…

Prochains Passages (prochaines 24 heures)

TLE

FraisSource: Space-Track

Époque: Sep 14, 2026, 15:09 UTC

1 53453U 22098K   26257.63138525  .00466828  10149-3  74793-3 0  9991
2 53453  97.5773  38.5909 0006978 262.2770  97.7717 16.03587392228914

Suivez TIANFU DONGPO 01 en temps réel avec AllMySat

Download on the App Store